[[{"header":{"parameterUnit":"m.s-1","parameterCategory":2,"la1":30.2991,"la2":30.254,"lo1":-89.0895,"lo2":-89.0444,"dy":0.0017,"dx":0.0017,"nx":28,"ny":28,"refTime":"2024-08-10T03:00:00:Z","depth":"0","parameterNumber":2,"parameterNumberName":"U-component_of_CURRENTS"},"data":[0,0,0,0,0,0,0,0,0,0,0,0,0,0,0,0,0,0,0,0,0,0,0,0,0,0,0,0,0,0,0,0,0,0,0,0,0,0,0,0,0,0,0,0,0,0,0,0,0,0,0,0,0,0,0,0,0,0,0.1847,0.1846,0,0.1844,0.1845,0.1846,0.1798,0.1795,0.1793,0.1791,0.1843,0.1846,0.185,0,0,0,0,0,0,0,0,0,0,0,0,0,0.1971,0.1969,0.1847,0.1846,0.1845,0.1844,0.1845,0.1846,0.1798,0.1795,0.1793,0.179,0.1842,0.1846,0.185,0,0,0,0,0,0,0,0,0,0,0,0,0,0.1947,0.1969,0.1847,0.1813,0.1809,0.1844,0.1845,0.1846,0.1798,0.1795,0.1792,0.1789,0.184,0.1845,0.185,0.1947,0,0,0.1866,0.1868,0,0,0,0,0,0,0,0,0.1949,0.1944,0.1819,0.1815,0.1811,0.1809,0.1907,0.1879,0.1799,0.1813,0.1791,0.1787,0.1832,0.1838,0.1858,0.1949,0.1952,0.1867,0.187,0.1872,0.1873,0,0,0,0,0,0,0,0.195,0.1945,0.1856,0.1818,0.1813,0.1853,0.1846,0.1903,0.185,0.1812,0.1806,0.1791,0.1832,0.1854,0.1859,0.1952,0.1866,0.1871,0.1874,0.1876,0.2167,0.2171,0,0,0,0,0,0,0.1925,0.1945,0.1856,0.1855,0.1862,0.1852,0.1844,0.1821,0.1848,0.1846,0.1793,0.1788,0.1847,0.1853,0.1861,0.1999,0.1872,0.1877,0.1879,0.2162,0.2168,0.2173,0,0,0,0,0,0,0.1927,0.1917,0.1856,0.1893,0.1886,0.1851,0.1827,0.1823,0.1844,0.1831,0.1831,0.1817,0.1844,0.1854,0.1926,0.1999,0.1879,0.1883,0.2157,0.2164,0.217,0.2262,0,0,0,0,0,0,0.1931,0.1918,0.193,0.189,0.1883,0.1904,0.1829,0.1825,0.1834,0.1828,0.1853,0.1853,0.1842,0.1918,0.1931,0.2004,0.1887,0.2151,0.216,0.2168,0.2253,0.2271,0.2287,0,0,0,0,0,0.1936,0.1983,0.1931,0.1921,0.1887,0.1906,0.1911,0.1881,0.1839,0.1883,0.1883,0.1853,0.1983,0.1926,0.194,0.2016,0.2146,0.2157,0.2167,0.2245,0.2267,0.2286,0,0,0,0,0,0,0.2063,0.1979,0.1922,0.1943,0.1924,0.1894,0.1937,0.19,0.1938,0.1931,0.1907,0.1912,0.201,0.2013,0.1951,0.2132,0.2064,0.2078,0.2119,0.214,0.2157,0.2121,0.1892,0,0,0,0,0,0.2084,0.2091,0.2013,0.2039,0.2023,0.1979,0.1989,0.1961,0.1964,0.1975,0.1989,0.2019,0.2072,0.2098,0.2153,0.2249,0.2239,0.2314,0.2331,0.2345,0.233,0.2387,0.2405,0.2207,0.2207,0.2207,0,0,0.214,0.2099,0.2102,0.2067,0.2046,0.2054,0.1982,0.2007,0.2033,0.1982,0.2063,0.2088,0.2115,0.2218,0.2263,0.222,0.2405,0.2358,0.2369,0.2346,0.2399,0.2418,0.2434,0.2214,0.2213,0.2212,0,0,0.2252,0.2211,0.2236,0.222,0.2182,0.2155,0.2159,0.2137,0.2149,0.2214,0.2191,0.2245,0.2334,0.2358,0.2378,0.253,0.2498,0.2571,0.2617,0.2674,0.2688,0.2701,0.2732,0.2747,0.257,0.257,0.2571,0,0.2322,0.2306,0.2263,0.2274,0.2261,0.2196,0.2214,0.2239,0.2256,0.2272,0.2256,0.2365,0.2396,0.248,0.2533,0.2564,0.2579,0.2526,0.269,0.2702,0.2713,0.2742,0.2757,0.2576,0.2575,0.2575,0.2574,0,0.2418,0.2406,0.2433,0.2396,0.2408,0.2424,0.2396,0.2442,0.2433,0.2424,0.2511,0.2545,0.2581,0.2636,0.2628,0.274,0.2721,0.2705,0.262,0.2738,0.2762,0.2776,0.2584,0.2582,0.2581,0.2579,0,0,0.253,0.2498,0.2497,0.2457,0.2454,0.2447,0.2534,0.2546,0.2547,0.2614,0.2633,0.2751,0.272,0.2743,0.2753,0.281,0.2924,0.2797,0.2797,0.2795,0.304,0.2969,0.2977,0.2936,0.2939,0.2941,0.3028,0,0.2591,0.2605,0.2595,0.2601,0.2577,0.2566,0.2621,0.2642,0.2658,0.2683,0.2724,0.2752,0.2774,0.2773,0.2847,0.289,0.2963,0.29,0.2953,0.2954,0.285,0.2991,0.2864,0.2926,0.3041,0.3043,0.3045,0,0.2639,0.2633,0.2646,0.2601,0.2592,0.2611,0.2619,0.2659,0.2705,0.2721,0.2765,0.2765,0.2853,0.2845,0.2988,0.2947,0.301,0.305,0.3054,0.2954,0.2909,0.2829,0.2946,0.2791,0.3065,0.3064,0.3062,0,0.264,0.264,0.2635,0.2626,0.261,0.2627,0.2627,0.2665,0.2679,0.2722,0.2723,0.2809,0.2828,0.2938,0.3018,0.3015,0.3155,0.3154,0.3156,0.3151,0.3032,0.301,0.2969,0.3277,0.3277,0.3277,0.3277,0,0.2651,0.263,0.2617,0.2601,0.2582,0.2587,0.258,0.2607,0.2639,0.2637,0.2708,0.2724,0.2856,0.2934,0.3029,0.3122,0.3169,0.3183,0.3181,0.3065,0.3046,0.2893,0.2829,0.328,0.3279,0.3279,0.3278,0,0.2613,0.2618,0.2583,0.2574,0.2566,0.2541,0.2531,0.2524,0.2567,0.2576,0.259,0.2681,0.2779,0.2895,0.3052,0.311,0.3114,0.3237,0.3074,0.3052,0.2899,0.2847,0.2768,0.273,0.3265,0.3264,0.3263,0,0.258,0.2564,0.2544,0.252,0.2505,0.2476,0.246,0.2489,0.249,0.2541,0.2543,0.2633,0.2682,0.2866,0.299,0.3132,0.3056,0.3089,0.3071,0.2884,0.2827,0.2742,0.2711,0.2966,0.2963,0.296,0.2958,0,0.2511,0.2512,0.2492,0.2452,0.2421,0.2394,0.2376,0.2373,0.2409,0.2422,0.2449,0.2487,0.2639,0.2701,0.2868,0.2963,0.2898,0.3038,0.2899,0.2636,0.2488,0.245,0.2896,0.2934,0.2937,0.2938,0.294,0.2941,0.2453,0.2426,0.2409,0.236,0.2335,0.2314,0.2273,0.2274,0.2268,0.2257,0.2337,0.2343,0.2434,0.2647,0.2718,0.2696,0.2755,0.2631,0.2602,0.2548,0.2444,0.2822,0.2818,0.2819,0.2821,0.2822,0.2823,0,0.236,0.2349,0.231,0.2263,0.2217,0.2233,0.221,0.2162,0.2125,0.2138,0.2139,0.2148,0.2185,0.2279,0.2313,0.2243,0.225,0.2169,0.2011,0.2027,0.2403,0.2317,0.2135,0.2135,0.2135,0.2135,0.2135,0.2136,0.2316,0.2263,0.2249,0.2158,0.2126,0.2049,0.2028,0.1972,0.1959,0.1864,0.1818,0.184,0.1863,0.1812,0.1739,0.1769,0.1672,0.1589,0.1633,0.1843,0.1883,0.192,0.1823,0.154,0.154,0.12,0.1197,0.1194]},{"header":{"parameterUnit":"m.s-1","parameterCategory":2,"la1":30.2991,"la2":30.254,"lo1":-89.0895,"lo2":-89.0444,"dy":0.0017,"dx":0.0017,"nx":28,"ny":28,"refTime":"2024-08-10T03:00:00:Z","depth":"0","parameterNumber":3,"parameterNumberName":"V-component_of_CURRENTS"},"data":[0,0,0,0,0,0,0,0,0,0,0,0,0,0,0,0,0,0,0,0,0,0,0,0,0,0,0,0,0,0,0,0,0,0,0,0,0,0,0,0,0,0,0,0,0,0,0,0,0,0,0,0,0,0,0,0,0,0,0.0044,0.0044,0,0.0077,0.0077,0.0077,0.0063,0.0062,0.0061,0.006,0.0088,0.009,0.0091,0,0,0,0,0,0,0,0,0,0,0,0,0,0.0007,0.0007,0.0044,0.0044,0.0044,0.0076,0.0077,0.0078,0.0063,0.0062,0.0061,0.006,0.0088,0.009,0.0091,0,0,0,0,0,0,0,0,0,0,0,0,0,0.0031,0.0008,0.0044,0.004,0.004,0.0076,0.0077,0.0078,0.0063,0.0062,0.006,0.0059,0.0087,0.0089,0.0092,0.0134,0,0,0.0099,0.01,0,0,0,0,0,0,0,0,0.0029,0.0032,0.004,0.004,0.004,0.0063,0.0074,0.0096,0.0064,0.0056,0.006,0.0058,0.008,0.0083,0.0093,0.0135,0.0136,0.0099,0.0101,0.0102,0.0102,0,0,0,0,0,0,0,0.0028,0.0031,0.0058,0.0041,0.0041,0.005,0.0052,0.0079,0.0076,0.0056,0.0055,0.0057,0.008,0.0091,0.0094,0.0137,0.0099,0.0101,0.0103,0.0104,0.0231,0.0233,0,0,0,0,0,0,0.0021,0.0029,0.0057,0.0059,0.003,0.0052,0.0053,0.0058,0.0075,0.0076,0.0058,0.0056,0.0088,0.0091,0.0095,0.0175,0.0102,0.0104,0.0105,0.0229,0.0231,0.0233,0,0,0,0,0,0,0.002,0.0023,0.0055,0.0044,0.0048,0.0053,0.0059,0.0059,0.0071,0.0077,0.0078,0.0069,0.0087,0.0092,0.0126,0.0175,0.0105,0.0107,0.0227,0.023,0.0232,0.0317,0,0,0,0,0,0,0.0019,0.0023,0.0025,0.0043,0.0048,0.0087,0.006,0.0061,0.0074,0.0072,0.0087,0.0088,0.0086,0.0122,0.0128,0.0177,0.0109,0.0224,0.0228,0.0231,0.0312,0.0322,0.0332,0,0,0,0,0,0.0018,0.0031,0.0025,0.0028,0.0051,0.0088,0.0093,0.0092,0.0076,0.0095,0.0099,0.0087,0.0149,0.0126,0.0132,0.0183,0.0222,0.0227,0.0231,0.0307,0.032,0.0331,0,0,0,0,0,0,0.0009,0.0031,0.0025,0.004,0.0065,0.0085,0.0097,0.0099,0.0119,0.0113,0.0111,0.0115,0.0162,0.0161,0.0135,0.0229,0.0185,0.0191,0.0241,0.0253,0.0263,0.0263,0.0111,0,0,0,0,0,0.001,0.0028,0.0048,0.0061,0.0071,0.0085,0.0098,0.0105,0.0123,0.0129,0.0146,0.0162,0.0189,0.0208,0.0228,0.0284,0.027,0.0321,0.0331,0.0339,0.0343,0.0374,0.0387,0.0248,0.0248,0.0248,0,0,0.0008,0.0023,0.003,0.0061,0.0073,0.0116,0.009,0.0118,0.0163,0.0131,0.0194,0.0196,0.0208,0.0267,0.029,0.0272,0.0369,0.0344,0.0352,0.0351,0.038,0.0393,0.0405,0.0251,0.025,0.025,0,0,0.0029,0.0028,0.0055,0.0085,0.0114,0.0134,0.0145,0.0181,0.0201,0.026,0.0247,0.0275,0.0326,0.0347,0.0361,0.044,0.0415,0.0451,0.0512,0.0542,0.0554,0.0564,0.0552,0.056,0.0463,0.0464,0.0464,0,0.002,0.0064,0.007,0.0113,0.0142,0.0147,0.0196,0.0231,0.0278,0.0309,0.0289,0.036,0.0368,0.0435,0.0462,0.0464,0.046,0.0466,0.0555,0.0565,0.0574,0.0559,0.0567,0.0468,0.0468,0.0467,0.0467,0,0.0078,0.011,0.013,0.0188,0.0223,0.0265,0.0311,0.0356,0.0377,0.0411,0.0475,0.0481,0.0518,0.0535,0.0525,0.06,0.0568,0.0558,0.0523,0.0593,0.0572,0.0579,0.0475,0.0473,0.0472,0.0471,0,0,0.0071,0.0151,0.0161,0.0195,0.0267,0.03,0.0384,0.046,0.0505,0.0555,0.0616,0.0664,0.065,0.0663,0.0654,0.0685,0.0738,0.0655,0.0655,0.0639,0.078,0.0745,0.0748,0.0748,0.075,0.0752,0.0736,0,0.0113,0.0196,0.0236,0.0321,0.0367,0.0409,0.0483,0.0551,0.0599,0.0664,0.0686,0.0728,0.0706,0.0709,0.0747,0.0739,0.0762,0.0741,0.0718,0.0717,0.0675,0.0758,0.075,0.0736,0.0742,0.0743,0.0744,0,0.0171,0.0217,0.0301,0.0383,0.0405,0.0458,0.0556,0.0621,0.0713,0.0747,0.0797,0.0804,0.0857,0.0815,0.0853,0.0841,0.082,0.0808,0.0807,0.075,0.0696,0.0671,0.0747,0.0693,0.0754,0.0753,0.0753,0,0.0178,0.0267,0.033,0.0363,0.0458,0.0501,0.0549,0.0644,0.07,0.0786,0.0823,0.0882,0.0899,0.0909,0.089,0.0877,0.0914,0.0888,0.0832,0.0826,0.0802,0.0792,0.0822,0.0914,0.0914,0.0914,0.0914,0,0.0222,0.027,0.0329,0.037,0.0435,0.0496,0.0574,0.0635,0.072,0.079,0.0845,0.0896,0.0928,0.0951,0.0923,0.0904,0.0941,0.0856,0.0838,0.0829,0.0822,0.0757,0.0709,0.0913,0.0913,0.0914,0.0914,0,0.0229,0.0274,0.0343,0.0424,0.0444,0.0486,0.0573,0.063,0.0705,0.0794,0.0819,0.092,0.096,0.0966,0.0978,0.0938,0.0891,0.0893,0.0859,0.0839,0.073,0.0686,0.0689,0.0704,0.0834,0.0834,0.0833,0,0.0242,0.0279,0.0359,0.039,0.0424,0.0484,0.0533,0.0615,0.0676,0.0805,0.0848,0.0922,0.0988,0.0993,0.0954,0.0909,0.0871,0.0842,0.0823,0.0741,0.068,0.0667,0.0681,0.0812,0.0812,0.0811,0.0811,0,0.0262,0.0286,0.0337,0.0395,0.0442,0.0504,0.0571,0.0617,0.0722,0.0795,0.0901,0.096,0.0989,0.0977,0.0921,0.0882,0.0811,0.0826,0.0775,0.07,0.0658,0.0657,0.0769,0.0806,0.0806,0.0807,0.0807,0.0807,0.0265,0.0292,0.0353,0.0405,0.0458,0.053,0.0582,0.0657,0.0749,0.0873,0.0917,0.1017,0.099,0.0936,0.0872,0.0748,0.0764,0.0692,0.0652,0.0652,0.066,0.0739,0.0737,0.0737,0.0737,0.0737,0.0737,0,0.0278,0.0311,0.0361,0.0437,0.0492,0.0523,0.0617,0.0677,0.0774,0.0885,0.0969,0.1021,0.0947,0.0877,0.0698,0.0585,0.0603,0.0536,0.0527,0.0558,0.0656,0.0649,0.0589,0.0589,0.0589,0.0589,0.0589,0.0589,0.0293,0.0338,0.0363,0.0453,0.0503,0.0585,0.064,0.0724,0.0814,0.0936,0.101,0.1071,0.1017,0.0663,0.0461,0.0432,0.0403,0.0367,0.0378,0.0424,0.0437,0.0448,0.0434,0.0329,0.0329,0.0329,0.0328,0.0327]}],[{"header":{"parameterUnit":"m.s-1","parameterCategory":2,"la1":30.2991,"la2":30.254,"lo1":-89.0895,"lo2":-89.0444,"dy":0.0017,"dx":0.0017,"nx":28,"ny":28,"refTime":"2024-08-10T03:00:00:Z","depth":"2","parameterNumber":2,"parameterNumberName":"U-component_of_CURRENTS"},"data":[0,0,0,0,0,0,0,0,0,0,0,0,0,0,0,0,0,0,0,0,0,0,0,0,0,0,0,0,0,0,0,0,0,0,0,0,0,0,0,0,0,0,0,0,0,0,0,0,0,0,0,0,0,0,0,0,0,0,0.0918,0.0918,0,0.104,0.1043,0.1045,0.1177,0.1178,0.1178,0.1179,0.1092,0.1089,0.1086,0,0,0,0,0,0,0,0,0,0,0,0,0,0.0968,0.0966,0.0918,0.0918,0.0918,0.104,0.1043,0.1046,0.1177,0.1178,0.1178,0.1179,0.1093,0.1089,0.1086,0,0,0,0,0,0,0,0,0,0,0,0,0,0.1017,0.0966,0.0918,0.0987,0.0994,0.1039,0.1043,0.1047,0.1177,0.1178,0.1179,0.1179,0.1094,0.109,0.1085,0.1044,0,0,0.1073,0.1071,0,0,0,0,0,0,0,0,0.1014,0.1017,0.0977,0.0982,0.0989,0.1081,0.1028,0.103,0.1177,0.1123,0.1179,0.118,0.1058,0.1057,0.1103,0.104,0.1036,0.1072,0.107,0.1068,0.1067,0,0,0,0,0,0,0,0.101,0.1013,0.0981,0.0977,0.0984,0.107,0.1078,0.1032,0.1092,0.1128,0.1134,0.1124,0.1063,0.1107,0.1101,0.1035,0.1072,0.1069,0.1066,0.1064,0.1193,0.1199,0,0,0,0,0,0,0.0955,0.1009,0.0977,0.0983,0.0987,0.1066,0.1076,0.1063,0.1098,0.1101,0.1123,0.1129,0.1114,0.1105,0.1097,0.1149,0.1068,0.1064,0.1061,0.1188,0.1195,0.1201,0,0,0,0,0,0,0.0956,0.0951,0.0972,0.0988,0.0995,0.1062,0.1048,0.1065,0.1108,0.1094,0.1096,0.1146,0.1114,0.1103,0.1125,0.1142,0.1062,0.1058,0.118,0.119,0.1198,0.1185,0,0,0,0,0,0,0.0957,0.0951,0.0963,0.0983,0.0991,0.0976,0.1046,0.1066,0.1093,0.1103,0.1113,0.1108,0.1114,0.1132,0.1121,0.1134,0.1055,0.1173,0.1185,0.1195,0.1178,0.1193,0.1205,0,0,0,0,0,0.0958,0.0966,0.0963,0.096,0.0992,0.0973,0.0986,0.1049,0.1093,0.1097,0.1167,0.1108,0.1197,0.1131,0.1117,0.113,0.1168,0.1181,0.1194,0.1172,0.119,0.1205,0,0,0,0,0,0,0.0979,0.0978,0.0977,0.0979,0.0956,0.0989,0.1053,0.1039,0.1104,0.1145,0.1139,0.1139,0.1163,0.1178,0.1106,0.1226,0.1188,0.1199,0.1177,0.1193,0.1206,0.1221,0.1051,0,0,0,0,0,0.0982,0.0958,0.0969,0.0929,0.0993,0.1016,0.1033,0.1032,0.1068,0.1102,0.1107,0.1169,0.1211,0.1224,0.1245,0.1273,0.1214,0.1303,0.1316,0.1326,0.1346,0.1217,0.1215,0.1245,0.1245,0.1245,0,0,0.096,0.0944,0.0933,0.0927,0.0986,0.1016,0.1038,0.1054,0.1022,0.1071,0.1109,0.117,0.1229,0.1292,0.1309,0.13,0.1307,0.1343,0.1349,0.1365,0.123,0.1224,0.122,0.1254,0.1253,0.1251,0,0,0.0889,0.0943,0.094,0.0967,0.0993,0.1007,0.0998,0.1042,0.106,0.1074,0.1138,0.1226,0.1265,0.1332,0.1369,0.1469,0.1358,0.1501,0.1577,0.145,0.1442,0.1434,0.1394,0.1382,0.1529,0.1529,0.1529,0,0.0896,0.0855,0.092,0.0957,0.0976,0.1002,0.1013,0.103,0.1025,0.1033,0.1089,0.1234,0.1289,0.1354,0.1486,0.1479,0.1425,0.148,0.145,0.1441,0.1433,0.1393,0.1379,0.153,0.153,0.153,0.153,0,0.0808,0.0844,0.0878,0.0915,0.0938,0.0946,0.0986,0.0994,0.1032,0.1031,0.1095,0.1222,0.1308,0.138,0.1496,0.1517,0.1504,0.1436,0.1364,0.1425,0.1385,0.1371,0.1532,0.1531,0.1531,0.1531,0,0,0.0687,0.0801,0.0813,0.087,0.0928,0.0937,0.0935,0.0932,0.0937,0.0997,0.1004,0.1215,0.1295,0.1359,0.1466,0.1481,0.1457,0.1504,0.1497,0.1391,0.1229,0.1241,0.1227,0.1345,0.1342,0.134,0.1232,0,0.062,0.0658,0.07,0.0745,0.0835,0.089,0.0872,0.0864,0.0897,0.0922,0.1038,0.1114,0.1263,0.1364,0.1382,0.1442,0.1418,0.1497,0.1255,0.1251,0.1186,0.121,0.1103,0.0998,0.1218,0.1216,0.1214,0,0.0553,0.0579,0.0622,0.0725,0.0778,0.08,0.0831,0.0806,0.0835,0.0864,0.0942,0.1012,0.1143,0.1223,0.1241,0.128,0.1283,0.1308,0.1298,0.1301,0.1235,0.0977,0.0964,0.119,0.1192,0.1194,0.1196,0,0.0459,0.0556,0.057,0.0616,0.0712,0.0756,0.0801,0.0823,0.0809,0.0857,0.0879,0.0931,0.102,0.0986,0.1141,0.1158,0.1113,0.1067,0.1046,0.1048,0.0914,0.0908,0.0977,0.0977,0.0977,0.0978,0.0978,0,0.0404,0.0455,0.0573,0.0617,0.0652,0.0751,0.0785,0.0812,0.0834,0.0826,0.0885,0.0904,0.0969,0.0978,0.1041,0.1042,0.0974,0.1072,0.1005,0.0924,0.0921,0.1053,0.1064,0.0974,0.0974,0.0975,0.0976,0,0.0368,0.0417,0.0483,0.0592,0.0645,0.0698,0.0822,0.0815,0.0851,0.0841,0.086,0.0882,0.0915,0.0952,0.0944,0.093,0.0911,0.0902,0.0881,0.0815,0.0954,0.0967,0.082,0.0819,0.0818,0.0818,0.0817,0,0.0361,0.0384,0.0481,0.052,0.0616,0.072,0.075,0.0817,0.0805,0.0833,0.0802,0.0857,0.0874,0.0872,0.0844,0.0816,0.0903,0.0707,0.0719,0.0981,0.093,0.0944,0.0958,0.0552,0.0549,0.0547,0.0545,0,0.035,0.0377,0.0422,0.0527,0.0605,0.0612,0.0711,0.0698,0.0728,0.0733,0.0748,0.0783,0.0786,0.0743,0.0727,0.0693,0.0707,0.0663,0.0836,0.0639,0.0726,0.0678,0.0699,0.0526,0.0528,0.0529,0.053,0.0531,0.0345,0.0354,0.0438,0.0542,0.0577,0.0548,0.0578,0.062,0.0615,0.0635,0.0671,0.0685,0.0615,0.0552,0.0552,0.0555,0.0581,0.0544,0.0549,0.0558,0.0576,0.0659,0.0455,0.0457,0.0458,0.0459,0.046,0,0.034,0.0385,0.0465,0.0523,0.0527,0.0589,0.0549,0.0535,0.0553,0.0559,0.0605,0.0448,0.0413,0.0434,0.0387,0.0362,0.0342,0.0383,0.0357,0.0372,0.0387,0.0399,0.023,0.0231,0.0231,0.0231,0,0,0.0333,0.0382,0.0425,0.0475,0.0536,0.0529,0.0503,0.0476,0.0457,0.0436,0.0429,0.0387,0.0351,0.0256,0.0235,0.0273,0.0333,0.0254,0.0418,0.0399,0.0415,0.0436,0.0466,0,0,0,0,0]},{"header":{"parameterUnit":"m.s-1","parameterCategory":2,"la1":30.2991,"la2":30.254,"lo1":-89.0895,"lo2":-89.0444,"dy":0.0017,"dx":0.0017,"nx":28,"ny":28,"refTime":"2024-08-10T03:00:00:Z","depth":"2","parameterNumber":3,"parameterNumberName":"V-component_of_CURRENTS"},"data":[0,0,0,0,0,0,0,0,0,0,0,0,0,0,0,0,0,0,0,0,0,0,0,0,0,0,0,0,0,0,0,0,0,0,0,0,0,0,0,0,0,0,0,0,0,0,0,0,0,0,0,0,0,0,0,0,0,0,-0.022,-0.022,0,-0.0266,-0.0267,-0.0268,-0.0293,-0.0293,-0.0292,-0.0292,-0.0337,-0.0339,-0.0341,0,0,0,0,0,0,0,0,0,0,0,0,0,-0.0209,-0.0209,-0.022,-0.022,-0.022,-0.0266,-0.0267,-0.0268,-0.0293,-0.0293,-0.0292,-0.0291,-0.0337,-0.0339,-0.0341,0,0,0,0,0,0,0,0,0,0,0,0,0,-0.0236,-0.0209,-0.022,-0.0234,-0.0235,-0.0265,-0.0267,-0.0268,-0.0293,-0.0293,-0.0292,-0.0291,-0.0336,-0.0339,-0.0341,-0.0371,0,0,-0.0349,-0.035,0,0,0,0,0,0,0,0,-0.0234,-0.0237,-0.0232,-0.0233,-0.0234,-0.0268,-0.0279,-0.0301,-0.0293,-0.0278,-0.0292,-0.0291,-0.0311,-0.0315,-0.0334,-0.0373,-0.0375,-0.0349,-0.035,-0.0351,-0.0352,0,0,0,0,0,0,0,-0.0232,-0.0235,-0.0245,-0.0232,-0.0233,-0.0256,-0.0259,-0.0284,-0.0302,-0.0279,-0.0279,-0.0275,-0.0312,-0.0332,-0.0335,-0.0376,-0.0349,-0.0351,-0.0353,-0.0354,-0.0362,-0.0361,0,0,0,0,0,0,-0.0212,-0.0233,-0.0243,-0.0245,-0.0226,-0.0256,-0.026,-0.0263,-0.0302,-0.0306,-0.0276,-0.0276,-0.0328,-0.0332,-0.0337,-0.0325,-0.0351,-0.0354,-0.0355,-0.0363,-0.0362,-0.0361,0,0,0,0,0,0,-0.0212,-0.0213,-0.0241,-0.0235,-0.0239,-0.0256,-0.026,-0.0264,-0.0284,-0.0298,-0.0303,-0.029,-0.0327,-0.0333,-0.034,-0.0328,-0.0355,-0.0357,-0.0365,-0.0363,-0.0361,-0.0332,0,0,0,0,0,0,-0.0212,-0.0213,-0.0231,-0.0234,-0.0239,-0.0271,-0.026,-0.0265,-0.0279,-0.028,-0.0312,-0.0316,-0.0327,-0.0336,-0.0342,-0.0332,-0.0359,-0.0367,-0.0364,-0.0362,-0.0334,-0.0329,-0.0325,0,0,0,0,0,-0.0212,-0.0238,-0.0232,-0.0233,-0.0255,-0.0271,-0.0278,-0.029,-0.028,-0.0303,-0.0296,-0.0315,-0.0325,-0.0337,-0.0345,-0.0335,-0.0368,-0.0365,-0.0362,-0.0337,-0.033,-0.0325,0,0,0,0,0,0,-0.0246,-0.0242,-0.0236,-0.026,-0.0266,-0.0273,-0.0297,-0.0293,-0.031,-0.0305,-0.0312,-0.0316,-0.0314,-0.0327,-0.034,-0.0326,-0.0345,-0.0343,-0.0323,-0.0317,-0.0312,-0.0284,-0.0361,0,0,0,0,0,-0.0257,-0.0281,-0.0267,-0.0293,-0.0289,-0.0291,-0.0303,-0.0303,-0.0305,-0.0313,-0.0324,-0.0321,-0.031,-0.0315,-0.0322,-0.0328,-0.0356,-0.0319,-0.0315,-0.0311,-0.029,-0.0386,-0.039,-0.0351,-0.0351,-0.0351,0,0,-0.028,-0.028,-0.0296,-0.0303,-0.0306,-0.0303,-0.0299,-0.0314,-0.0316,-0.0315,-0.033,-0.0315,-0.0307,-0.0301,-0.0301,-0.0311,-0.0321,-0.0307,-0.0304,-0.0285,-0.0384,-0.0388,-0.0392,-0.0349,-0.035,-0.035,0,0,-0.0305,-0.0329,-0.0334,-0.0332,-0.0326,-0.0334,-0.0333,-0.0332,-0.0341,-0.0352,-0.0322,-0.0293,-0.032,-0.0284,-0.0273,-0.0247,-0.0295,-0.0249,-0.0206,-0.0301,-0.0306,-0.0311,-0.0296,-0.03,-0.0246,-0.0246,-0.0246,0,-0.0331,-0.0322,-0.0342,-0.0325,-0.0318,-0.0339,-0.032,-0.0346,-0.0349,-0.0345,-0.0358,-0.0318,-0.0309,-0.0254,-0.0218,-0.0237,-0.0272,-0.0234,-0.0299,-0.0305,-0.031,-0.0295,-0.03,-0.0244,-0.0245,-0.0245,-0.0245,0,-0.032,-0.0322,-0.0327,-0.0312,-0.032,-0.0321,-0.0324,-0.0343,-0.0357,-0.0363,-0.0339,-0.0313,-0.0283,-0.0262,-0.0226,-0.0218,-0.0219,-0.029,-0.0323,-0.0313,-0.0295,-0.0301,-0.0242,-0.0243,-0.0243,-0.0244,0,0,-0.033,-0.0323,-0.0317,-0.0297,-0.0304,-0.0301,-0.0319,-0.0325,-0.0315,-0.0342,-0.0319,-0.0266,-0.0247,-0.0225,-0.0178,-0.0211,-0.0238,-0.0247,-0.0253,-0.0243,-0.0382,-0.0307,-0.0305,-0.0355,-0.0357,-0.0358,-0.0335,0,-0.0304,-0.0275,-0.0276,-0.0256,-0.0236,-0.0256,-0.0264,-0.0278,-0.0302,-0.0304,-0.0289,-0.0257,-0.0243,-0.019,-0.0233,-0.0228,-0.0261,-0.0232,-0.0381,-0.0382,-0.033,-0.0313,-0.029,-0.0263,-0.0341,-0.0342,-0.0342,0,-0.0257,-0.0247,-0.0216,-0.0202,-0.0191,-0.0188,-0.0184,-0.0193,-0.0217,-0.0226,-0.022,-0.0223,-0.0182,-0.0219,-0.0264,-0.0257,-0.0307,-0.0329,-0.0333,-0.0278,-0.032,-0.0295,-0.0271,-0.0352,-0.0352,-0.0351,-0.035,0,-0.0219,-0.0196,-0.0175,-0.0166,-0.0161,-0.0146,-0.015,-0.0163,-0.0159,-0.0166,-0.0153,-0.0174,-0.0143,-0.0253,-0.0264,-0.0293,-0.0343,-0.042,-0.0393,-0.0385,-0.0394,-0.0384,-0.0511,-0.0511,-0.0512,-0.0512,-0.0512,0,-0.0175,-0.0153,-0.0153,-0.0133,-0.01,-0.0101,-0.0072,-0.0079,-0.0077,-0.0057,-0.0096,-0.0062,-0.0168,-0.0201,-0.027,-0.0306,-0.0376,-0.0355,-0.039,-0.0371,-0.036,-0.0477,-0.0474,-0.0511,-0.0511,-0.0511,-0.0511,0,-0.013,-0.0134,-0.0105,-0.0089,-0.008,-0.0053,-0.003,-0.0014,-0.0006,0.0024,0.0031,0.0012,-0.0017,-0.0095,-0.0211,-0.0269,-0.0339,-0.0351,-0.0244,-0.0266,-0.0308,-0.0303,-0.0326,-0.0324,-0.0322,-0.032,-0.0318,0,-0.0106,-0.0088,-0.0071,-0.0051,-0.0041,-0.0008,0.001,0.0016,0.0036,0.0082,0.0102,0.0104,0.0111,0.0024,-0.0069,-0.0162,-0.0257,-0.0217,-0.0277,-0.0265,-0.0297,-0.0295,-0.0293,-0.0252,-0.025,-0.0249,-0.0248,0,-0.0057,-0.006,-0.0043,-0.001,0.0017,0.0047,0.0079,0.0103,0.0124,0.0171,0.0233,0.0251,0.0215,0.0138,0.0037,-0.0035,-0.0199,-0.0185,-0.0263,-0.0292,-0.0193,-0.0224,-0.0226,-0.0234,-0.0235,-0.0236,-0.0237,-0.0237,-0.0028,-0.0012,0.0001,0.0034,0.0066,0.0107,0.0136,0.018,0.0238,0.0328,0.0336,0.0361,0.0226,0.0122,0.0048,-0.0018,-0.0046,-0.0144,-0.0152,-0.0161,-0.0146,-0.0048,-0.0052,-0.0053,-0.0053,-0.0053,-0.0053,0,0.001,0.0015,0.0048,0.0089,0.0129,0.0132,0.0184,0.0227,0.0312,0.0385,0.0465,0.0334,0.0266,0.0129,0.007,0.0011,-0.0016,-0.004,-0.0101,-0.0113,-0.0124,-0.0111,-0.0006,-0.0006,-0.0007,-0.0007,0,0,0.0033,0.0059,0.0069,0.0138,0.0165,0.0212,0.0238,0.0324,0.0373,0.0454,0.0454,0.0449,0.0244,0.0155,0.0076,0.0048,-0.0011,0.0052,0.0025,-0.0045,-0.0055,-0.0168,-0.0157,0,0,0,0,0]}],[{"header":{"parameterUnit":"m.s-1","parameterCategory":2,"la1":30.2991,"la2":30.254,"lo1":-89.0895,"lo2":-89.0444,"dy":0.0017,"dx":0.0017,"nx":28,"ny":28,"refTime":"2024-08-10T03:00:00:Z","depth":"4","parameterNumber":2,"parameterNumberName":"U-component_of_CURRENTS"},"data":[0,0,0,0,0,0,0,0,0,0,0,0,0,0,0,0,0,0,0,0,0,0,0,0,0,0,0,0,0,0,0,0,0,0,0,0,0,0,0,0,0,0,0,0,0,0,0,0,0,0,0,0,0,0,0,0,0,0,-0.0397,-0.0396,0,-0.0404,-0.0404,-0.0404,-0.0449,-0.045,-0.0451,-0.0452,-0.0536,-0.0537,-0.0539,0,0,0,0,0,0,0,0,0,0,0,0,0,-0.0389,-0.039,-0.0397,-0.0396,-0.0396,-0.0404,-0.0404,-0.0405,-0.0449,-0.045,-0.0451,-0.0452,-0.0535,-0.0537,-0.0539,0,0,0,0,0,0,0,0,0,0,0,0,0,-0.0397,-0.039,-0.0397,-0.0417,-0.0419,-0.0404,-0.0404,-0.0405,-0.0449,-0.045,-0.0451,-0.0453,-0.0535,-0.0537,-0.0539,-0.0529,0,0,-0.0546,-0.0547,0,0,0,0,0,0,0,0,-0.0397,-0.0398,-0.0414,-0.0416,-0.0417,-0.0424,-0.0432,-0.0449,-0.0449,-0.0441,-0.0452,-0.0453,-0.0503,-0.0508,-0.051,-0.0533,-0.0536,-0.0546,-0.0547,-0.0548,-0.0549,0,0,0,0,0,0,0,-0.0396,-0.0397,-0.0403,-0.0414,-0.0416,-0.0414,-0.0418,-0.0435,-0.0469,-0.0442,-0.0444,-0.0439,-0.0505,-0.0507,-0.0512,-0.0538,-0.0546,-0.0548,-0.0549,-0.055,-0.0633,-0.0634,0,0,0,0,0,0,-0.0389,-0.0397,-0.0402,-0.0403,-0.0406,-0.0414,-0.0417,-0.0423,-0.0467,-0.0473,-0.0438,-0.0441,-0.0503,-0.0509,-0.0515,-0.058,-0.0548,-0.0551,-0.0552,-0.0632,-0.0633,-0.0634,0,0,0,0,0,0,-0.0389,-0.039,-0.0402,-0.0397,-0.0398,-0.0412,-0.0419,-0.0423,-0.0448,-0.0463,-0.0472,-0.0461,-0.0504,-0.0512,-0.055,-0.0581,-0.0552,-0.0554,-0.0631,-0.0632,-0.0633,-0.0663,0,0,0,0,0,0,-0.0389,-0.039,-0.0398,-0.0397,-0.0398,-0.0405,-0.0418,-0.0422,-0.044,-0.0445,-0.0485,-0.0493,-0.0506,-0.0546,-0.0552,-0.0584,-0.0555,-0.063,-0.0632,-0.0633,-0.0661,-0.0665,-0.0669,0,0,0,0,0,-0.0389,-0.0392,-0.0399,-0.04,-0.0407,-0.0405,-0.0406,-0.0422,-0.044,-0.045,-0.0481,-0.0493,-0.0561,-0.0549,-0.0555,-0.0588,-0.0629,-0.0631,-0.0633,-0.0659,-0.0664,-0.0669,0,0,0,0,0,0,-0.0389,-0.0396,-0.0404,-0.0409,-0.0412,-0.0412,-0.0422,-0.0431,-0.0461,-0.0479,-0.0499,-0.0508,-0.0556,-0.0562,-0.0548,-0.0616,-0.0599,-0.0602,-0.0617,-0.0622,-0.0625,-0.0596,-0.0557,0,0,0,0,0,-0.0391,-0.0404,-0.0402,-0.0409,-0.0413,-0.0422,-0.0427,-0.0439,-0.0457,-0.0473,-0.0503,-0.0535,-0.0563,-0.0585,-0.0608,-0.0641,-0.0625,-0.0667,-0.0671,-0.0675,-0.0655,-0.0651,-0.0652,-0.064,-0.064,-0.064,0,0,-0.0392,-0.0398,-0.0405,-0.0411,-0.0421,-0.0433,-0.0431,-0.0446,-0.047,-0.0477,-0.0533,-0.0551,-0.0574,-0.0615,-0.0637,-0.0629,-0.0674,-0.0677,-0.068,-0.0657,-0.0653,-0.0654,-0.0654,-0.0641,-0.0641,-0.0641,0,0,-0.0401,-0.041,-0.0426,-0.0438,-0.0452,-0.0449,-0.0458,-0.0475,-0.05,-0.0533,-0.0555,-0.0586,-0.0628,-0.0652,-0.0667,-0.0703,-0.0693,-0.072,-0.072,-0.0718,-0.0718,-0.0718,-0.0714,-0.0714,-0.0724,-0.0724,-0.0724,0,-0.0404,-0.0427,-0.0428,-0.0453,-0.0471,-0.0462,-0.049,-0.0501,-0.0532,-0.0554,-0.0558,-0.0616,-0.0643,-0.0684,-0.0695,-0.0713,-0.07,-0.0703,-0.0721,-0.0721,-0.072,-0.0716,-0.0715,-0.0726,-0.0726,-0.0725,-0.0725,0,-0.0428,-0.0456,-0.0468,-0.05,-0.0514,-0.0534,-0.0548,-0.0571,-0.059,-0.0598,-0.0644,-0.0663,-0.0684,-0.0714,-0.0713,-0.0735,-0.0724,-0.0725,-0.0706,-0.0723,-0.0718,-0.0717,-0.0728,-0.0728,-0.0727,-0.0727,0,0,-0.0419,-0.0474,-0.0482,-0.052,-0.0549,-0.0564,-0.06,-0.0622,-0.0642,-0.0664,-0.069,-0.073,-0.0713,-0.0725,-0.0737,-0.074,-0.0738,-0.0723,-0.0723,-0.0713,-0.0723,-0.0672,-0.0666,-0.0737,-0.0736,-0.0736,-0.0727,0,-0.0443,-0.0493,-0.0521,-0.0582,-0.0611,-0.0635,-0.0661,-0.0685,-0.0693,-0.0709,-0.072,-0.0727,-0.0725,-0.0721,-0.0726,-0.0732,-0.0732,-0.074,-0.0712,-0.0711,-0.0658,-0.0661,-0.0735,-0.0725,-0.0725,-0.0724,-0.0724,0,-0.0462,-0.0497,-0.0561,-0.0632,-0.0649,-0.0683,-0.0727,-0.074,-0.0745,-0.0746,-0.0739,-0.0727,-0.0726,-0.0714,-0.0714,-0.0713,-0.0707,-0.0713,-0.0713,-0.0645,-0.0656,-0.0701,-0.0721,-0.0721,-0.0721,-0.0721,-0.0722,0,-0.0453,-0.0531,-0.0586,-0.0615,-0.068,-0.0727,-0.0737,-0.0755,-0.076,-0.0736,-0.0726,-0.0721,-0.0701,-0.0696,-0.0694,-0.0691,-0.0696,-0.0699,-0.0653,-0.0651,-0.0686,-0.0686,-0.0688,-0.0688,-0.0688,-0.0688,-0.0688,0,-0.0458,-0.0513,-0.0593,-0.0628,-0.069,-0.0727,-0.076,-0.0766,-0.0757,-0.0753,-0.0719,-0.0716,-0.0688,-0.0691,-0.0691,-0.0662,-0.0689,-0.0637,-0.0637,-0.0703,-0.0704,-0.0686,-0.0686,-0.0687,-0.0688,-0.0688,-0.0688,0,-0.0441,-0.0494,-0.0579,-0.0668,-0.0691,-0.0731,-0.076,-0.0761,-0.0743,-0.0733,-0.0712,-0.0695,-0.0665,-0.0662,-0.0657,-0.0644,-0.0638,-0.0627,-0.0697,-0.0704,-0.0594,-0.0596,-0.055,-0.0548,-0.0546,-0.0545,-0.0544,0,-0.0432,-0.0471,-0.0593,-0.0636,-0.0687,-0.0727,-0.0734,-0.074,-0.0738,-0.0733,-0.0734,-0.0692,-0.0676,-0.0604,-0.0627,-0.0598,-0.0597,-0.059,-0.0576,-0.0571,-0.0576,-0.0581,-0.0585,-0.0541,-0.054,-0.054,-0.0539,0,-0.0427,-0.049,-0.0549,-0.062,-0.0677,-0.0698,-0.072,-0.0694,-0.0691,-0.0728,-0.0671,-0.0626,-0.0596,-0.0557,-0.0526,-0.053,-0.059,-0.0572,-0.0575,-0.0562,-0.0559,-0.0567,-0.0573,-0.0533,-0.0534,-0.0535,-0.0535,0,-0.0432,-0.0461,-0.054,-0.06,-0.0652,-0.0633,-0.0643,-0.0626,-0.061,-0.0609,-0.0616,-0.0578,-0.0591,-0.0528,-0.0536,-0.0488,-0.047,-0.0454,-0.0463,-0.0469,-0.045,-0.0435,-0.0356,0,0,0,0,0,-0.0427,-0.0441,-0.0495,-0.0549,-0.0588,-0.0612,-0.0622,-0.0625,-0.0646,-0.0576,-0.0571,-0.0535,-0.0468,-0.048,-0.0406,-0.052,-0.0488,-0.044,-0.0477,-0.05,-0.0507,-0.0493,0,0,0,0,0,0,-0.0424,-0.0477,-0.0484,-0.0491,-0.0493,-0.0515,-0.0502,-0.0516,-0.0472,-0.0499,-0.0453,-0.0516,-0.0453,-0.0483,-0.0399,-0.0404,-0.0416,-0.0451,-0.045,-0.0496,-0.0503,-0.0508,-0.0496,0,0,0,0,0]},{"header":{"parameterUnit":"m.s-1","parameterCategory":2,"la1":30.2991,"la2":30.254,"lo1":-89.0895,"lo2":-89.0444,"dy":0.0017,"dx":0.0017,"nx":28,"ny":28,"refTime":"2024-08-10T03:00:00:Z","depth":"4","parameterNumber":3,"parameterNumberName":"V-component_of_CURRENTS"},"data":[0,0,0,0,0,0,0,0,0,0,0,0,0,0,0,0,0,0,0,0,0,0,0,0,0,0,0,0,0,0,0,0,0,0,0,0,0,0,0,0,0,0,0,0,0,0,0,0,0,0,0,0,0,0,0,0,0,0,0.0364,0.0364,0,0.0374,0.0374,0.0374,0.0442,0.0443,0.0445,0.0446,0.0504,0.0504,0.0504,0,0,0,0,0,0,0,0,0,0,0,0,0,0.0368,0.0367,0.0364,0.0364,0.0364,0.0374,0.0374,0.0374,0.0441,0.0443,0.0445,0.0447,0.0504,0.0504,0.0504,0,0,0,0,0,0,0,0,0,0,0,0,0,0.0371,0.0367,0.0364,0.0398,0.0401,0.0374,0.0374,0.0374,0.0441,0.0443,0.0446,0.0448,0.0504,0.0504,0.0504,0.0458,0,0,0.0505,0.0505,0,0,0,0,0,0,0,0,0.0371,0.0371,0.0393,0.0396,0.0399,0.0408,0.0396,0.0404,0.044,0.0427,0.0446,0.0449,0.0474,0.0477,0.0474,0.0461,0.0463,0.0505,0.0505,0.0505,0.0505,0,0,0,0,0,0,0,0.0371,0.0371,0.0369,0.0393,0.0396,0.04,0.0404,0.0398,0.0439,0.0428,0.0433,0.0432,0.0477,0.0474,0.0476,0.0464,0.0505,0.0505,0.0505,0.0505,0.0519,0.052,0,0,0,0,0,0,0.0367,0.0371,0.0368,0.0369,0.039,0.0399,0.0403,0.0404,0.0438,0.0445,0.043,0.0435,0.0472,0.0476,0.0478,0.0497,0.0505,0.0505,0.0505,0.0519,0.0519,0.052,0,0,0,0,0,0,0.0367,0.0367,0.0368,0.0369,0.037,0.0396,0.0396,0.0402,0.0436,0.0438,0.0447,0.0461,0.0474,0.0478,0.0495,0.0497,0.0505,0.0505,0.0519,0.0519,0.052,0.0488,0,0,0,0,0,0,0.0367,0.0366,0.0373,0.0369,0.037,0.037,0.0394,0.0401,0.0429,0.0437,0.0467,0.0473,0.0476,0.0494,0.0495,0.0497,0.0505,0.0518,0.0519,0.0519,0.0489,0.0487,0.0486,0,0,0,0,0,0.0367,0.0358,0.0373,0.0373,0.0375,0.037,0.0371,0.0398,0.0428,0.0439,0.046,0.0474,0.0499,0.0494,0.0495,0.0497,0.0518,0.0519,0.0519,0.0489,0.0487,0.0486,0,0,0,0,0,0,0.0364,0.0363,0.038,0.0374,0.0383,0.0382,0.0387,0.0411,0.0434,0.0451,0.0467,0.0472,0.0491,0.0498,0.0493,0.0506,0.0515,0.0516,0.0492,0.049,0.0489,0.0464,0.0505,0,0,0,0,0,0.0363,0.0363,0.0365,0.0366,0.0367,0.0385,0.0391,0.0412,0.0425,0.0441,0.0467,0.0486,0.0485,0.0494,0.0501,0.0498,0.0492,0.0506,0.0505,0.0503,0.0485,0.0466,0.046,0.0522,0.0522,0.0522,0,0,0.0361,0.0363,0.0364,0.0367,0.0374,0.0368,0.0396,0.041,0.042,0.0439,0.0473,0.0485,0.0485,0.0487,0.0496,0.0498,0.0488,0.0504,0.0503,0.0484,0.0466,0.0459,0.0454,0.0522,0.0522,0.0522,0,0,0.0349,0.0361,0.0355,0.036,0.0374,0.0374,0.0386,0.0407,0.0435,0.045,0.0469,0.0483,0.0497,0.0491,0.0486,0.0482,0.0484,0.0497,0.0463,0.0446,0.044,0.0434,0.0435,0.043,0.0493,0.0493,0.0493,0,0.0349,0.0344,0.0354,0.035,0.0351,0.038,0.0375,0.039,0.0424,0.0434,0.0466,0.0474,0.0491,0.0461,0.0462,0.0478,0.0469,0.0465,0.0441,0.0435,0.043,0.0432,0.0427,0.0492,0.0492,0.0492,0.0492,0,0.0332,0.0332,0.0327,0.033,0.0333,0.0333,0.0348,0.0372,0.0409,0.0422,0.0435,0.0447,0.0442,0.0459,0.0454,0.0425,0.0433,0.0442,0.0438,0.0422,0.0426,0.0421,0.049,0.049,0.0491,0.0491,0,0,0.0311,0.0314,0.0313,0.0312,0.0325,0.0319,0.0332,0.0336,0.0335,0.038,0.0371,0.0381,0.039,0.0384,0.039,0.0378,0.0351,0.0387,0.0386,0.0375,0.0314,0.0297,0.029,0.0346,0.0344,0.0343,0.0338,0,0.0296,0.0279,0.0288,0.0274,0.0262,0.0287,0.0284,0.03,0.0317,0.0318,0.0337,0.0327,0.0358,0.0345,0.0338,0.0342,0.0332,0.0351,0.0342,0.0342,0.0317,0.0281,0.0339,0.0334,0.0333,0.0332,0.0331,0,0.0271,0.0263,0.0251,0.0238,0.0235,0.0236,0.023,0.0231,0.0234,0.0245,0.0239,0.0249,0.0233,0.0265,0.0256,0.0262,0.0277,0.0292,0.0292,0.0275,0.0313,0.0351,0.0322,0.0323,0.0323,0.0324,0.0324,0,0.0241,0.0229,0.0221,0.0221,0.0216,0.0223,0.0217,0.0218,0.0207,0.019,0.0175,0.0166,0.0157,0.0167,0.0212,0.0217,0.0213,0.0229,0.0232,0.0233,0.0266,0.0271,0.0214,0.0214,0.0214,0.0214,0.0214,0,0.0208,0.0196,0.0212,0.0206,0.0186,0.0196,0.017,0.0165,0.0146,0.0115,0.0128,0.0097,0.0127,0.014,0.0179,0.019,0.0189,0.0206,0.0215,0.0258,0.0263,0.0263,0.0269,0.0214,0.0214,0.0214,0.0214,0,0.0172,0.0185,0.0174,0.0179,0.0175,0.0165,0.0138,0.0104,0.0099,0.0057,0.0046,0.0037,0.0035,0.0088,0.0109,0.0142,0.0164,0.0176,0.0227,0.0244,0.0203,0.0208,0.0146,0.0145,0.0144,0.0143,0.0142,0,0.0149,0.0147,0.0154,0.0142,0.0149,0.0129,0.0099,0.0083,0.0045,0.002,-0.001,-0.0018,-0.0015,0.0008,0.0059,0.0119,0.0138,0.0156,0.0159,0.0173,0.0189,0.0195,0.0201,0.0141,0.0141,0.0141,0.014,0,0.0107,0.0129,0.0119,0.0104,0.0089,0.0039,0.0005,-0.0024,-0.0046,-0.0045,-0.0075,-0.0059,-0.0061,-0.0028,0.0028,0.0077,0.014,0.0147,0.0149,0.0151,0.0167,0.0185,0.0192,0.0138,0.0138,0.0138,0.0138,0,0.0081,0.0071,0.0076,0.006,0.0026,-0.0032,-0.0051,-0.0092,-0.012,-0.0122,-0.0133,-0.0108,-0.0089,-0.0051,0.0001,0.0042,0.0042,0.0065,0.0071,0.0075,0.006,0.007,-0.0003,0,0,0,0,0,0.0051,0.0042,0.0019,-0.0004,-0.0041,-0.0055,-0.0113,-0.0129,-0.0131,-0.0159,-0.0142,-0.0136,-0.009,-0.0077,-0.0047,-0.0027,0.0047,0.001,0.0076,0.0121,0.0125,0.0117,0,0,0,0,0,0,0.0028,0.0016,0.0013,-0.0047,-0.0072,-0.0129,-0.016,-0.017,-0.0187,-0.017,-0.0155,-0.0117,-0.0082,-0.0097,-0.0038,-0.0028,0.0018,0.004,0.0041,0.0119,0.0122,0.0125,0.0119,0,0,0,0,0]}]]